N5JLD-1 Weather Reports


Display with metric or nautical units.
time (UTC)temp
F
wind
direction
speed
MPH
gust
MPH
rain 1hr
in
rain 24hr
in
rain mn
in
humidity
%
barometer
mb
20190519111531 60 0.0 0.0 0.00 1.38 0.00 96 1010.1
20190519110515 60 0.0 0.0 0.00 1.38 0.00 96 1009.8
20190519105531 61 0.0 0.0 0.00 1.38 0.00 97 1009.6
20190519104517 62 0.0 0.0 0.00 1.38 0.00 97 1009.5
20190519103527 62 0.0 0.0 0.00 1.38 0.00 97 1009.4
20190519102530 64 0.0 0.0 0.00 1.38 0.00 98 1009.1
20190519101527 65 0.0 0.0 0.00 1.38 0.00 99 1009.0
20190519100531 67 0.0 0.0 0.00 1.38 0.00 99 1008.9
20190519095515 68 292 0.0 1.0 0.00 1.38 0.00 99 1008.6
20190519094519 68 0.0 0.0 0.00 1.38 0.00 99 1008.3
20190519093517 69 0.0 0.0 0.00 1.38 0.00 99 1008.0
20190519092521 69 221 0.0 2.0 0.00 1.38 0.00 99 1007.7
20190519091523 70 0.0 0.0 0.00 1.38 0.00 99 1007.6
20190519090526 70 0.0 0.0 0.00 1.38 0.00 99 1007.4
20190519085529 70 0.0 0.0 0.00 1.38 0.00 99 1007.4
20190519084525 70 249 0.0 2.0 0.00 1.38 0.00 99 1007.5
20190519083523 70 0.0 0.0 0.00 1.38 0.00 99 1007.6
20190519082521 70 150 0.0 2.0 0.00 1.38 0.00 99 1007.6
20190519081519 70 0.0 0.0 0.00 1.38 0.00 99 1007.4
20190519080527 71 0.0 0.0 0.00 1.38 0.00 99 1007.3
20190519075531 71 0.0 0.0 0.00 1.38 0.00 99 1007.3
20190519074528 72 0.0 0.0 0.00 1.38 0.00 99 1007.2
20190519073531 72 0.0 0.0 0.00 1.38 0.00 99 1007.2
20190519072530 72 0.0 1.0 0.00 1.38 0.00 99 1007.2
20190519071531 73 0.0 1.0 0.00 1.38 0.00 99 1007.1
20190519070518 73 0.0 0.0 0.00 1.38 0.00 99 1006.9
20190519065520 73 245 0.0 2.0 0.00 1.38 0.00 99 1006.7
20190519064518 72 254 0.0 2.0 0.00 1.38 0.00 99 1006.6
20190519063521 72 231 1.0 3.0 0.00 1.38 0.00 99 1006.5
20190519062519 72 200 1.0 3.0 0.00 1.38 0.00 99 1006.4
20190519061517 72 194 2.0 4.0 0.00 1.38 0.00 99 1006.4
20190519060519 73 203 2.0 4.0 0.00 1.38 0.00 99 1006.2
20190519055524 73 162 2.0 4.0 0.00 1.38 0.00 99 1006.2
20190519054524 73 185 2.0 4.0 0.00 1.38 0.00 99 1006.2
20190519053522 73 182 2.0 4.0 0.00 1.38 0.00 98 1006.2
20190519052519 73 184 2.0 4.0 0.00 1.38 0.00 98 1006.2
20190519051517 72 194 4.0 6.0 0.00 1.38 0.00 98 1005.9
20190519050520 72 134 4.0 6.0 0.00 1.38 0.00 98 1006.0
20190519045518 72 172 4.0 6.0 0.00 1.38 1.38 98 1006.2
20190519044515 72 167 3.0 5.0 0.00 1.38 1.38 98 1006.2
20190519043519 72 182 3.0 4.0 0.00 1.38 1.38 98 1006.2
20190519042517 70 148 0.0 2.0 0.00 1.38 1.38 97 1006.2
20190519041533 70 2 0.0 3.0 0.00 1.38 1.38 97 1006.2
20190519040518 70 36 1.0 3.0 0.00 1.38 1.38 97 1005.9
20190519035521 70 275 0.0 2.0 0.00 1.38 1.38 97 1005.9
20190519034519 70 202 1.0 2.0 0.00 1.38 1.38 97 1005.8
20190519033521 70 231 0.0 2.0 0.00 1.38 1.38 97 1005.7
20190519032524 71 142 0.0 2.0 0.00 1.38 1.38 97 1005.5
20190519031528 71 140 1.0 4.0 0.00 1.38 1.38 96 1005.5
20190519030530 70 190 0.0 2.0 0.00 1.38 1.38 96 1005.4
20190519025516 70 229 0.0 2.0 0.00 1.38 1.38 96 1005.4
20190519024527 70 170 0.0 4.0 0.00 1.38 1.38 95 1005.4
20190519023529 69 202 0.0 2.0 0.00 1.38 1.38 95 1005.4
20190519022526 69 270 0.0 2.0 0.00 1.38 1.38 94 1005.3
20190519021531 68 0.0 1.0 0.00 1.38 1.38 93 1005.3
20190519020527 68 0.0 0.0 0.00 1.38 1.38 92 1005.1
20190519015526 69 0.0 0.0 0.00 1.38 1.38 92 1004.9
20190519014523 69 0.0 0.0 0.00 1.38 1.38 91 1004.9
20190519013521 69 270 0.0 1.0 0.09 1.38 1.38 90 1004.8
20190519012518 70 0.0 0.0 0.13 1.38 1.38 88 1004.6
20190519011516 71 211 0.0 2.0 0.14 1.38 1.38 88 1004.6
20190519010520 71 177 3.0 5.0 0.14 1.38 1.38 88 1004.3
20190519005522 70 158 3.0 5.0 0.14 1.38 1.38 86 1004.2
20190519004526 70 203 4.0 6.0 0.14 1.38 1.38 84 1004.6
20190519003521 72 270 0.0 2.0 0.05 1.29 1.29 89 1004.7
20190519002522 73 143 2.0 3.0 0.01 1.24 1.24 88 1004.2
20190519001525 73 72 3.0 5.0 0.00 1.23 1.23 88 1004.1
20190519000523 74 301 3.0 7.0 0.00 1.23 1.23 87 1003.9
20190518235525 74 85 3.0 8.0 0.00 1.23 1.23 87 1003.8
20190518234523 74 175 3.0 5.0 0.00 1.23 1.23 87 1003.6
20190518233527 74 83 3.0 6.0 0.00 1.23 1.23 87 1003.6
20190518232530 73 174 2.0 4.0 0.00 1.23 1.23 87 1003.8
20190518231528 73 251 1.0 3.0 0.00 1.23 1.23 88 1003.5
20190518230525 72 328 2.0 5.0 0.00 1.23 1.23 88 1003.6
20190518225524 72 161 2.0 5.0 0.00 1.23 1.23 89 1003.6
20190518224521 71 151 1.0 4.0 0.00 1.23 1.23 91 1003.7
20190518223525 70 134 2.0 3.0 0.00 1.23 1.23 93 1003.8
20190518222523 69 70 3.0 4.0 0.00 1.23 1.23 93 1003.8
20190518221525 69 70 2.0 3.0 0.00 1.23 1.23 93 1004.0
20190518220528 68 64 1.0 2.0 0.00 1.23 1.23 93 1004.3
20190518215526 68 117 0.0 3.0 0.00 1.23 1.23 93 1004.4
20190518214523 68 59 2.0 4.0 0.00 1.23 1.23 93 1004.2
20190518213521 68 140 1.0 4.0 0.00 1.23 1.23 93 1004.1
20190518212519 68 67 2.0 3.0 0.00 1.23 1.23 93 1004.1
20190518211517 68 110 2.0 4.0 0.00 1.23 1.23 94 1004.5
20190518210533 67 49 3.0 5.0 0.00 1.23 1.23 94 1004.5
20190518205530 67 118 3.0 4.0 0.00 1.23 1.23 95 1004.5
20190518204516 67 132 2.0 4.0 0.00 1.23 1.23 95 1004.1
20190518203531 67 83 0.0 2.0 0.00 1.23 1.23 95 1003.9
20190518202529 67 0.0 0.0 0.00 1.23 1.23 95 1004.2
20190518201528 66 0.0 0.0 0.00 1.23 1.23 95 1003.9
20190518200526 66 0.0 0.0 0.00 1.23 1.23 96 1004.1
20190518195524 65 0.0 1.0 0.00 1.23 1.23 96 1003.8
20190518194522 65 0.0 0.0 0.00 1.23 1.23 96 1004.1
20190518193520 64 0.0 0.0 0.00 1.23 1.23 96 1004.2
20190518192519 64 0.0 0.0 0.00 1.23 1.23 95 1003.8
20190518191521 64 164 0.0 2.0 0.00 1.23 1.23 95 1004.3
20190518190524 64 54 3.0 4.0 0.00 1.23 1.23 95 1005.1
20190518185522 64 0.0 0.0 0.03 1.23 1.23 95 1005.7
20190518184527 64 157 1.0 3.0 0.27 1.23 1.23 95 1005.3
20190518183524 64 0.0 0.0 0.48 1.23 1.23 94 1004.9
20190518182528 63 158 3.0 6.0 0.64 1.23 1.23 93 1004.6
20190518181530 63 192 5.0 8.0 0.67 1.23 1.23 93 1005.9
20190518180516 63 164 5.0 8.0 0.70 1.23 1.23 93 1005.7
20190518175532 63 208 6.0 9.0 0.78 1.20 1.20 91 1005.2
20190518174517 64 209 7.0 11.0 0.60 0.96 0.96 88 1006.3
20190518173526 66 249 6.0 13.0 0.51 0.75 0.75 94 1007.0
20190518172525 65 249 2.0 4.0 0.55 0.58 0.58 92 1006.9
20190518171522 64 293 1.0 2.0 0.55 0.55 0.55 91 1006.9
20190518170519 64 305 0.0 2.0 0.52 0.52 0.52 90 1007.4
20190518165517 64 281 1.0 2.0 0.42 0.42 0.42 89 1007.7
20190518164520 65 102 2.0 3.0 0.36 0.36 0.36 88 1008.4
20190518163518 68 253 2.0 5.0 0.24 0.24 0.24 86 1008.5
20190518162516 73 288 1.0 4.0 0.03 0.03 0.03 91 1007.4
20190518161532 73 190 3.0 6.0 0.00 0.00 0.00 90 1006.9
20190518160530 73 176 5.0 8.0 0.00 0.00 0.00 90 1006.7
20190518155528 74 183 3.0 5.0 0.00 0.00 0.00 89 1006.7
20190518154527 74 189 5.0 8.0 0.00 0.00 0.00 89 1006.8
20190518153530 74 151 4.0 7.0 0.00 0.00 0.00 89 1006.9
20190518152533 74 8 4.0 6.0 0.00 0.00 0.00 89 1007.1
20190518151531 74 184 3.0 5.0 0.00 0.00 0.00 89 1007.1
20190518150527 74 141 4.0 6.0 0.00 0.00 0.00 89 1006.7
20190518145525 74 135 4.0 6.0 0.00 0.00 0.00 89 1006.4
20190518144529 74 220 5.0 9.0 0.00 0.00 0.00 89 1006.4
20190518143532 74 158 4.0 6.0 0.00 0.00 0.00 89 1006.5
20190518142518 74 145 4.0 7.0 0.00 0.00 0.00 89 1006.7
20190518141533 74 287 4.0 7.0 0.00 0.00 0.00 88 1006.7
20190518140530 74 128 4.0 5.0 0.00 0.00 0.00 88 1006.7
20190518135527 74 148 5.0 8.0 0.00 0.00 0.00 87 1006.7
20190518134531 74 167 5.0 9.0 0.00 0.00 0.00 87 1006.6
20190518133528 74 113 7.0 14.0 0.00 0.00 0.00 87 1006.6
20190518132526 74 141 5.0 8.0 0.00 0.00 0.00 87 1006.7
20190518131524 74 161 4.0 8.0 0.00 0.00 0.00 87 1006.7
20190518130520 74 170 5.0 9.0 0.00 0.00 0.00 87 1007.1
20190518125519 74 169 5.0 8.0 0.00 0.00 0.00 87 1006.9
20190518124516 74 129 4.0 7.0 0.00 0.00 0.00 87 1007.0
20190518123532 74 233 5.0 10.0 0.00 0.00 0.00 87 1007.0
20190518122529 74 168 4.0 6.0 0.00 0.00 0.00 87 1006.9
20190518121528 74 166 4.0 7.0 0.00 0.00 0.00 87 1007.4
20190518120525 74 207 4.0 6.0 0.00 0.00 0.00 87 1007.4
20190518115523 74 206 3.0 5.0 0.00 0.00 0.00 87 1007.3
20190518114526 74 190 4.0 7.0 0.00 0.00 0.00 87 1007.1
20190518113524 74 189 5.0 7.0 0.00 0.00 0.00 86 1007.0
20190518112528 74 260 4.0 6.0 0.00 0.00 0.00 86 1006.9